{"data":{"norad_id":65670,"intl_designator":"2025-211U","name":"STARLINK-35359","alt_names":[],"object_type":"PAYLOAD","status":"ACTIVE","operator":null,"country":"US","launch_date":"2025-09-19","launch_site_code":"AFWTR","launch_vehicle":null,"mission":null,"orbit_class":"UNKNOWN","rcs_meters":null,"size_class":null,"mass_kg":null,"dimensions":null,"purposes":["comms"],"wikipedia_slug":null,"has_3d_model":false,"image_url":null,"decayed_at":null,"tle_current":{"epoch":"2026-05-25T02:27:18.504000Z","epoch_age_seconds":80356,"freshness":"FRESH","line1":"1 65670U 25211U   26145.10229750 -.00002284  00000+0 -15430-3 0  9992","line2":"2 65670  97.4478 189.0789 0001997 140.1588 219.9786 15.05645892 38547","mean_motion":15.05645892,"eccentricity":0.0001997,"inclination_deg":97.4478,"raan_deg":189.0789,"arg_perigee_deg":140.1588,"mean_anomaly_deg":219.9786,"bstar":-0.0001543,"rev_number":3854,"period_min":95.640017858861,"perigee_km":548.14030109772,"apogee_km":550.90720880325,"semimajor_km":6927.6607549505,"source":"CELESTRAK","updated_at":"2026-05-25T13:38:20.891732Z"}}}